Shenandoah, IA

8:33 PM CDT on June 24, 2017 (GMT -0500)
Shenandoah Municipal

Weather History for KSDA - August, 2013

Change the Weather History Date:

Thursday, August 22, 2013

  Actual Average Record
Temperature  
Mean Temperature 78 °F -  
Max Temperature 86 °F 85 °F 100 °F (1948)
Min Temperature 68 °F 63 °F 49 °F (1951)
Cooling Degree Days 12    
Growing Degree Days 28 (Base 50)    
Moisture  
Dew Point 66 °F    
Average Humidity 74    
Maximum Humidity 88    
Minimum Humidity 51    
Precipitation  
Precipitation 0.00 in - - ()
Sea Level Pressure  
Sea Level Pressure 30.07 in    
Wind  
Wind Speed 2 mph (East)    
Max Wind Speed 9 mph    
Max Gust Speed -    
Visibility 8 miles    
Events      
Averages and records for this station are not official NWS values.
T = Trace of Precipitation, MM = Missing Value Source: NWS Daily Summary

Daily Weather History Graph

Daily Weather History Graph

Search for Another Location

Airport or City:

Trip Planner

Search our weather history database for the weather conditions in past years. The results will help you decide how hot, cold, wet, or windy it might be!

Date:

Astronomy

Aug. 22, 2013 Rise Set
Actual Time 6:39 AM CDT 8:09 PM CDT
Civil Twilight 6:10 AM CDT 8:37 PM CDT
Nautical Twilight 5:35 AM CDT 9:12 PM CDT
Astronomical Twilight 4:58 AM CDT 9:48 PM CDT
Moon 8:52 PM CDT (8/22) 8:29 AM CDT (8/22)
Length of Visible Light 14h 27m
Length of Day
13h 30m
Waning Gibbous, 96% of the Moon is Illuminated
Aug 22
Waning Gibbous
Aug 28
Last Quarter
Sep 5
New
Sep 12
First Quarter
Sep 19
Full

Hourly Weather History & Observations

Time (CDT) Temp. Heat Index Dew Point Humidity Pressure Visibility Wind Dir Wind Speed Gust Speed Precip Events Conditions
12:15 AM 73.4 °F - 66.2 °F 78% 30.02 in 10.0 mi Calm Calm - N/A   Clear
12:35 AM 73.4 °F - 66.2 °F 78% 30.01 in 10.0 mi Calm Calm - N/A   Scattered Clouds
12:55 AM 71.6 °F - 66.2 °F 83% 30.03 in 7.0 mi Calm Calm - N/A   Scattered Clouds
1:15 AM 73.4 °F - 66.2 °F 78% 30.05 in 10.0 mi Calm Calm - N/A   Scattered Clouds
1:35 AM 73.4 °F - 66.2 °F 78% 30.05 in 10.0 mi Calm Calm - N/A   Scattered Clouds
1:55 AM 73.4 °F - 66.2 °F 78% 30.04 in 10.0 mi Calm Calm - N/A   Scattered Clouds
2:15 AM 73.4 °F - 66.2 °F 78% 30.04 in 10.0 mi South 3.5 mph - N/A   Clear
2:35 AM 71.6 °F - 66.2 °F 83% 30.02 in 10.0 mi Calm Calm - N/A   Scattered Clouds
2:55 AM 71.6 °F - 66.2 °F 83% 30.03 in 10.0 mi Calm Calm - N/A   Scattered Clouds
3:15 AM 71.6 °F - 64.4 °F 78% 30.06 in 7.0 mi Calm Calm - N/A   Scattered Clouds
3:35 AM 71.6 °F - 66.2 °F 83% 30.10 in 10.0 mi NNW 9.2 mph - N/A   Scattered Clouds
3:55 AM 71.6 °F - 66.2 °F 83% 30.10 in 10.0 mi Calm Calm - N/A   Scattered Clouds
4:15 AM 71.6 °F - 66.2 °F 83% 30.09 in 7.0 mi Calm Calm - N/A   Scattered Clouds
4:35 AM 71.6 °F - 66.2 °F 83% 30.07 in 7.0 mi Calm Calm - N/A   Scattered Clouds
4:55 AM 69.8 °F - 64.4 °F 83% 30.07 in 4.0 mi Calm Calm - N/A   Haze
5:15 AM 69.8 °F - 64.4 °F 83% 30.08 in 4.0 mi Calm Calm - N/A   Scattered Clouds
5:35 AM 69.8 °F - 64.4 °F 83% 30.09 in 4.0 mi Calm Calm - N/A   Scattered Clouds
5:55 AM 69.8 °F - 64.4 °F 83% 30.08 in 5.0 mi Calm Calm - N/A   Scattered Clouds
6:15 AM 69.8 °F - 64.4 °F 83% 30.09 in 4.0 mi Calm Calm - N/A   Scattered Clouds
6:35 AM 69.8 °F - 64.4 °F 83% 30.09 in 4.0 mi Calm Calm - N/A   Scattered Clouds
6:55 AM 69.8 °F - 64.4 °F 83% 30.09 in 4.0 mi Calm Calm - N/A   Clear
7:15 AM 69.8 °F - 64.4 °F 83% 30.08 in 4.0 mi Calm Calm - N/A   Clear
7:35 AM 69.8 °F - 64.4 °F 83% 30.09 in 3.0 mi Calm Calm - N/A   Scattered Clouds
7:55 AM 69.8 °F - 64.4 °F 83% 30.08 in 4.0 mi Calm Calm - N/A   Clear
8:15 AM 69.8 °F - 66.2 °F 88% 30.07 in 4.0 mi Calm Calm - N/A   Clear
8:35 AM 71.6 °F - 66.2 °F 83% 30.07 in 5.0 mi Calm Calm - N/A   Haze
8:55 AM 71.6 °F - 66.2 °F 83% 30.09 in 4.0 mi Calm Calm - N/A   Clear
9:15 AM 71.6 °F - 66.2 °F 83% 30.07 in 7.0 mi East 3.5 mph - N/A   Clear
9:35 AM 73.4 °F - 66.2 °F 78% 30.08 in 10.0 mi Calm Calm - N/A   Clear
9:55 AM 73.4 °F - 66.2 °F 78% 30.09 in 10.0 mi SSE 3.5 mph - N/A   Clear
10:15 AM 73.4 °F - 66.2 °F 78% 30.08 in 10.0 mi ESE 4.6 mph - N/A   Clear
10:35 AM 75.2 °F - 66.2 °F 73% 30.09 in 10.0 mi ESE 8.1 mph - N/A   Clear
10:55 AM 73.4 °F - 66.2 °F 78% 30.09 in 10.0 mi East 4.6 mph - N/A   Clear
11:15 AM 75.2 °F - 66.2 °F 73% 30.10 in 10.0 mi ESE 4.6 mph - N/A   Clear
11:35 AM 75.2 °F - 66.2 °F 73% 30.13 in 10.0 mi Calm Calm - N/A   Clear
11:55 AM 75.2 °F - 66.2 °F 73% 30.12 in 10.0 mi Calm Calm - N/A   Clear
12:15 PM 77.0 °F - 66.2 °F 69% 30.11 in 10.0 mi East 6.9 mph - N/A   Clear
12:35 PM 77.0 °F - 66.2 °F 69% 30.09 in 10.0 mi East 9.2 mph - N/A   Clear
12:55 PM 77.0 °F - 66.2 °F 69% 30.12 in 10.0 mi Calm Calm - N/A   Clear
1:15 PM 78.8 °F - 66.2 °F 65% 30.10 in 10.0 mi East 6.9 mph - N/A   Clear
1:35 PM 82.4 °F 84.6 °F 66.2 °F 58% 30.09 in 10.0 mi East 8.1 mph - N/A   Clear
1:55 PM 82.4 °F 84.6 °F 66.2 °F 58% 30.09 in 10.0 mi East 8.1 mph - N/A   Clear
2:15 PM 82.4 °F 84.6 °F 66.2 °F 58% 30.08 in 10.0 mi East 9.2 mph - N/A   Clear
2:35 PM 84.2 °F 86.6 °F 66.2 °F 55% 30.09 in 10.0 mi ESE 8.1 mph - N/A   Clear
2:55 PM 84.2 °F 86.6 °F 66.2 °F 55% 30.08 in 10.0 mi ESE 6.9 mph - N/A   Clear
3:15 PM 84.2 °F 86.6 °F 66.2 °F 55% 30.07 in 10.0 mi ESE 4.6 mph - N/A   Clear
3:35 PM 84.2 °F 86.6 °F 66.2 °F 55% 30.07 in 10.0 mi ESE 5.8 mph - N/A   Clear
3:55 PM 84.2 °F 86.6 °F 66.2 °F 55% 30.06 in 10.0 mi Calm Calm - N/A   Clear
4:15 PM 86.0 °F 88.2 °F 66.2 °F 51% 30.06 in 10.0 mi ESE 4.6 mph - N/A   Clear
4:35 PM 84.2 °F 87.3 °F 68.0 °F 58% 30.06 in 10.0 mi East 3.5 mph - N/A   Clear
4:55 PM 84.2 °F 87.3 °F 68.0 °F 58% 30.06 in 10.0 mi East 3.5 mph - N/A   Clear
5:15 PM 86.0 °F 89.4 °F 68.0 °F 55% 30.05 in 10.0 mi ESE 6.9 mph - N/A   Clear
5:35 PM 84.2 °F 86.6 °F 66.2 °F 55% 30.05 in 10.0 mi SE 4.6 mph - N/A   Clear
5:55 PM 86.0 °F 89.4 °F 68.0 °F 55% 30.05 in 10.0 mi Calm Calm - N/A   Clear
6:15 PM 84.2 °F 87.3 °F 68.0 °F 58% 30.05 in 10.0 mi East 4.6 mph - N/A   Clear
6:35 PM 82.4 °F 86.3 °F 69.8 °F 66% 30.05 in 10.0 mi East 4.6 mph - N/A   Clear
6:55 PM 82.4 °F 86.3 °F 69.8 °F 66% 30.04 in 10.0 mi East 4.6 mph - N/A   Clear
7:15 PM 82.4 °F 86.3 °F 69.8 °F 66% 30.05 in 10.0 mi East 3.5 mph - N/A   Clear
7:35 PM 80.6 °F 83.9 °F 69.8 °F 70% 30.04 in 10.0 mi Calm Calm - N/A   Clear
7:55 PM 80.6 °F 83.9 °F 69.8 °F 70% 30.04 in 10.0 mi Calm Calm - N/A   Clear
8:15 PM 77.0 °F - 69.8 °F 78% 30.04 in 10.0 mi SSE 3.5 mph - N/A   Scattered Clouds
8:35 PM 75.2 °F - 68.0 °F 78% 30.05 in 10.0 mi Calm Calm - N/A   Scattered Clouds
8:55 PM 73.4 °F - 66.2 °F 78% 30.05 in 10.0 mi NNE 3.5 mph - N/A   Scattered Clouds
9:15 PM 73.4 °F - 66.2 °F 78% 30.06 in 7.0 mi NE 5.8 mph - N/A   Scattered Clouds
9:35 PM 71.6 °F - 66.2 °F 83% 30.06 in 10.0 mi NE 4.6 mph - N/A   Clear
9:55 PM 71.6 °F - 66.2 °F 83% 30.06 in 7.0 mi NE 5.8 mph - N/A   Scattered Clouds
10:15 PM 69.8 °F - 64.4 °F 83% 30.07 in 7.0 mi NE 5.8 mph - N/A   Scattered Clouds
10:35 PM 69.8 °F - 64.4 °F 83% 30.07 in 7.0 mi NE 3.5 mph - N/A   Scattered Clouds
10:55 PM 69.8 °F - 64.4 °F 83% 30.08 in 7.0 mi NE 5.8 mph - N/A   Scattered Clouds
11:15 PM 69.8 °F - 64.4 °F 83% 30.08 in 10.0 mi NE 4.6 mph - N/A   Clear
11:55 PM 68.0 °F - 64.4 °F 88% 30.09 in 7.0 mi NE 3.5 mph - N/A   Scattered Clouds